Time,TemperatureF,DewpointF,PressureIn,WindDirection,WindDirectionDegrees,WindSpeedMPH,WindSpeedGustMPH,Humidity,HourlyPrecipIn,Conditions,Clouds,dailyrainin,SoftwareType,DateUTC
2013-04-03 00:01:00,32.2,19.5,29.76,West,281,16.0,19.0,59,0.00,,,0.00,Wunderground v.1.15,2013-04-03 04:01:00,
2013-04-03 00:11:00,32.2,19.9,29.76,SW,225,17.0,17.0,60,0.00,,,0.00,Wunderground v.1.15,2013-04-03 04:11:00,
2013-04-03 00:16:00,32.1,19.0,29.76,West,262,17.0,17.0,58,0.00,,,0.00,Wunderground v.1.15,2013-04-03 04:16:00,
2013-04-03 00:26:00,32.0,18.5,29.76,WSW,257,16.0,16.0,57,0.00,,,0.00,Wunderground v.1.15,2013-04-03 04:26:00,
2013-04-03 00:31:00,32.1,18.6,29.76,WNW,298,15.0,15.0,57,0.00,,,0.00,Wunderground v.1.15,2013-04-03 04:31:00,
2013-04-03 00:36:00,32.1,19.4,29.76,West,262,14.0,16.0,59,0.00,,,0.00,Wunderground v.1.15,2013-04-03 04:36:00,
2013-04-03 00:41:00,32.1,19.4,29.76,West,268,15.0,15.0,59,0.00,,,0.00,Wunderground v.1.15,2013-04-03 04:41:00,
2013-04-03 00:50:00,32.1,18.6,29.76,West,271,14.0,14.0,57,0.00,,,0.00,Wunderground v.1.15,2013-04-03 04:50:00,
2013-04-03 00:55:00,32.1,18.2,29.76,WNW,287,15.0,20.0,56,0.00,,,0.00,Wunderground v.1.15,2013-04-03 04:55:00,
2013-04-03 01:00:00,32.1,19.0,29.76,NW,304,15.0,15.0,58,0.00,,,0.00,Wunderground v.1.15,2013-04-03 05:00:00,
2013-04-03 01:10:00,32.1,19.0,29.76,WSW,239,15.0,15.0,58,0.00,,,0.00,Wunderground v.1.15,2013-04-03 05:10:00,
2013-04-03 01:15:00,32.3,20.0,29.76,WNW,301,15.0,17.0,60,0.00,,,0.00,Wunderground v.1.15,2013-04-03 05:15:00,
2013-04-03 01:20:00,32.2,19.1,29.76,NW,315,15.0,21.0,58,0.00,,,0.00,Wunderground v.1.15,2013-04-03 05:20:00,
2013-04-03 01:30:00,32.1,19.0,29.76,West,276,13.0,13.0,58,0.00,,,0.00,Wunderground v.1.15,2013-04-03 05:30:00,
2013-04-03 01:40:00,32.1,19.8,29.76,West,281,12.0,14.0,60,0.00,,,0.00,Wunderground v.1.15,2013-04-03 05:40:00,
2013-04-03 01:50:00,32.3,20.7,29.77,WNW,297,13.0,17.0,62,0.00,,,0.00,Wunderground v.1.15,2013-04-03 05:50:00,
2013-04-03 02:00:00,32.2,21.0,29.77,WNW,292,16.0,16.0,63,0.00,,,0.00,Wunderground v.1.15,2013-04-03 06:00:00,
2013-04-03 02:10:00,31.9,19.2,29.77,NW,315,19.0,20.0,59,0.00,,,0.00,Wunderground v.1.15,2013-04-03 06:10:00,
2013-04-03 02:20:00,32.2,21.0,29.77,NW,318,20.0,20.0,63,0.00,,,0.00,Wunderground v.1.15,2013-04-03 06:20:00,
2013-04-03 02:30:00,32.0,20.1,29.77,WNW,297,20.0,20.0,61,0.00,,,0.00,Wunderground v.1.15,2013-04-03 06:30:00,
2013-04-03 02:40:00,31.6,21.9,29.77,West,264,20.0,20.0,67,0.00,,,0.00,Wunderground v.1.15,2013-04-03 06:40:00,
2013-04-03 02:45:00,31.4,21.7,29.77,WSW,257,20.0,20.0,67,0.00,,,0.00,Wunderground v.1.15,2013-04-03 06:45:00,
2013-04-03 02:55:00,31.8,22.8,29.77,NW,312,20.0,33.0,69,0.00,,,0.00,Wunderground v.1.15,2013-04-03 06:55:00,
2013-04-03 03:00:00,31.5,22.5,29.77,NNW,327,26.0,31.0,69,0.00,,,0.00,Wunderground v.1.15,2013-04-03 07:00:00,
2013-04-03 03:10:00,31.2,21.9,29.77,NW,312,22.0,22.0,68,0.00,,,0.00,Wunderground v.1.15,2013-04-03 07:10:00,
2013-04-03 03:20:00,31.1,22.5,29.77,WNW,303,18.0,18.0,70,0.00,,,0.00,Wunderground v.1.15,2013-04-03 07:20:00,
2013-04-03 03:25:00,31.1,22.1,29.77,NW,311,17.0,20.0,69,0.00,,,0.00,Wunderground v.1.15,2013-04-03 07:25:00,
2013-04-03 03:35:00,31.2,20.1,29.78,NW,306,22.0,23.0,63,0.00,,,0.00,Wunderground v.1.15,2013-04-03 07:35:00,
2013-04-03 03:40:00,31.1,20.7,29.78,NW,316,21.0,24.0,65,0.00,,,0.00,Wunderground v.1.15,2013-04-03 07:40:00,
2013-04-03 03:50:00,31.0,22.0,29.77,West,281,17.0,17.0,69,0.00,,,0.00,Wunderground v.1.15,2013-04-03 07:50:00,
2013-04-03 04:00:00,30.5,22.9,29.77,WNW,291,14.0,14.0,73,0.00,,,0.00,Wunderground v.1.15,2013-04-03 08:00:00,
2013-04-03 04:10:00,30.6,23.3,29.78,WNW,283,17.0,17.0,74,0.00,,,0.00,Wunderground v.1.15,2013-04-03 08:10:00,
2013-04-03 04:15:00,31.0,24.0,29.78,WNW,302,18.0,18.0,75,0.00,,,0.00,Wunderground v.1.15,2013-04-03 08:15:00,
2013-04-03 04:25:00,30.7,21.7,29.78,WNW,302,17.0,17.0,69,0.00,,,0.00,Wunderground v.1.15,2013-04-03 08:25:00,
2013-04-03 04:30:00,30.6,22.0,29.78,NW,312,15.0,15.0,70,0.00,,,0.00,Wunderground v.1.15,2013-04-03 08:30:00,
2013-04-03 04:40:00,30.3,21.0,29.78,WNW,291,10.0,10.0,68,0.00,,,0.00,Wunderground v.1.15,2013-04-03 08:40:00,
2013-04-03 04:45:00,30.3,21.7,29.78,West,259,9.0,10.0,70,0.00,,,0.00,Wunderground v.1.15,2013-04-03 08:45:00,
2013-04-03 04:55:00,30.2,20.9,29.78,West,264,9.0,9.0,68,0.00,,,0.00,Wunderground v.1.15,2013-04-03 08:55:00,
2013-04-03 05:00:00,30.3,20.3,29.78,West,273,11.0,11.0,66,0.00,,,0.00,Wunderground v.1.15,2013-04-03 09:00:00,
2013-04-03 05:05:00,30.3,19.9,29.78,West,277,13.0,13.0,65,0.00,,,0.00,Wunderground v.1.15,2013-04-03 09:05:00,
2013-04-03 05:15:00,30.5,20.5,29.78,WNW,289,13.0,20.0,66,0.00,,,0.00,Wunderground v.1.15,2013-04-03 09:15:00,
2013-04-03 05:20:00,30.6,20.2,29.78,WNW,289,14.0,17.0,65,0.00,,,0.00,Wunderground v.1.15,2013-04-03 09:20:00,
2013-04-03 05:30:00,30.5,19.8,29.78,West,268,13.0,15.0,64,0.00,,,0.00,Wunderground v.1.15,2013-04-03 09:30:00,
2013-04-03 05:35:00,30.5,20.5,29.78,West,264,14.0,15.0,66,0.00,,,0.00,Wunderground v.1.15,2013-04-03 09:35:00,
2013-04-03 05:45:00,30.4,18.9,29.78,WNW,285,13.0,14.0,62,0.00,,,0.00,Wunderground v.1.15,2013-04-03 09:45:00,
2013-04-03 05:50:00,30.6,19.1,29.79,WNW,290,14.0,15.0,62,0.00,,,0.00,Wunderground v.1.15,2013-04-03 09:50:00,
2013-04-03 06:01:00,30.7,19.6,29.79,WSW,237,13.0,13.0,63,0.00,,,0.00,Wunderground v.1.15,2013-04-03 10:01:00,
2013-04-03 06:10:00,30.6,19.5,29.80,WNW,297,12.0,14.0,63,0.00,,,0.00,Wunderground v.1.15,2013-04-03 10:10:00,
2013-04-03 06:20:00,30.4,19.3,29.80,WSW,253,12.0,14.0,63,0.00,,,0.00,Wunderground v.1.15,2013-04-03 10:20:00,
2013-04-03 06:25:00,30.5,19.4,29.80,NW,317,14.0,22.0,63,0.00,,,0.00,Wunderground v.1.15,2013-04-03 10:25:00,
2013-04-03 06:35:00,30.6,19.5,29.80,West,268,14.0,14.0,63,0.00,,,0.00,Wunderground v.1.15,2013-04-03 10:35:00,
2013-04-03 06:47:00,30.6,18.7,29.80,WSW,237,14.0,17.0,61,0.00,,,0.00,Wunderground v.1.15,2013-04-03 10:47:00,
2013-04-03 06:50:00,30.5,19.0,29.80,West,280,13.0,17.0,62,0.00,,,0.00,Wunderground v.1.15,2013-04-03 10:50:00,
2013-04-03 06:55:00,30.6,18.3,29.81,NW,315,14.0,17.0,60,0.00,,,0.00,Wunderground v.1.15,2013-04-03 10:55:00,
2013-04-03 07:00:00,30.5,18.6,29.81,NW,310,14.0,16.0,61,0.00,,,0.00,Wunderground v.1.15,2013-04-03 11:00:00,
2013-04-03 07:05:00,30.5,18.3,29.81,West,266,13.0,16.0,60,0.00,,,0.00,Wunderground v.1.15,2013-04-03 11:05:00,
2013-04-03 07:10:00,30.6,19.1,29.81,WNW,300,13.0,13.0,62,0.00,,,0.00,Wunderground v.1.15,2013-04-03 11:10:00,
2013-04-03 07:15:00,30.6,18.3,29.81,WNW,284,12.0,13.0,60,0.00,,,0.00,Wunderground v.1.15,2013-04-03 11:15:00,
2013-04-03 07:20:00,30.6,18.7,29.81,WSW,250,12.0,12.0,61,0.00,,,0.00,Wunderground v.1.15,2013-04-03 11:20:00,
2013-04-03 07:30:00,30.5,17.9,29.81,WSW,256,12.0,12.0,59,0.00,,,0.00,Wunderground v.1.15,2013-04-03 11:30:00,
2013-04-03 07:35:00,30.5,18.3,29.81,WSW,244,12.0,13.0,60,0.00,,,0.00,Wunderground v.1.15,2013-04-03 11:35:00,
2013-04-03 07:40:00,30.5,17.9,29.81,WSW,252,13.0,13.0,59,0.00,,,0.00,Wunderground v.1.15,2013-04-03 11:40:00,
2013-04-03 07:45:00,30.3,16.9,29.81,West,278,13.0,13.0,57,0.00,,,0.00,Wunderground v.1.15,2013-04-03 11:45:00,
2013-04-03 07:50:00,30.5,17.9,29.81,WSW,239,13.0,16.0,59,0.00,,,0.00,Wunderground v.1.15,2013-04-03 11:50:00,
2013-04-03 07:55:00,30.3,17.3,29.81,WSW,248,13.0,16.0,58,0.00,,,0.00,Wunderground v.1.15,2013-04-03 11:55:00,
2013-04-03 08:00:00,30.6,19.1,29.80,SW,236,14.0,16.0,62,0.00,,,0.00,Wunderground v.1.15,2013-04-03 12:00:00,
2013-04-03 08:10:00,30.4,18.2,29.80,West,269,15.0,16.0,60,0.00,,,0.00,Wunderground v.1.15,2013-04-03 12:10:00,
2013-04-03 08:15:00,30.4,17.4,29.80,WNW,282,17.0,17.0,58,0.00,,,0.00,Wunderground v.1.15,2013-04-03 12:15:00,
2013-04-03 08:20:00,30.4,17.0,29.80,NW,308,17.0,21.0,57,0.00,,,0.00,Wunderground v.1.15,2013-04-03 12:20:00,
2013-04-03 08:25:00,30.6,18.0,29.80,NW,307,16.0,22.0,59,0.00,,,0.00,Wunderground v.1.15,2013-04-03 12:25:00,
2013-04-03 08:30:00,30.4,16.6,29.80,West,278,17.0,17.0,56,0.00,,,0.00,Wunderground v.1.15,2013-04-03 12:30:00,
2013-04-03 08:35:00,30.6,17.2,29.80,WNW,299,17.0,17.0,57,0.00,,,0.00,Wunderground v.1.15,2013-04-03 12:35:00,
2013-04-03 08:40:00,30.7,18.4,29.80,SW,236,16.0,16.0,60,0.00,,,0.00,Wunderground v.1.15,2013-04-03 12:40:00,
2013-04-03 08:45:00,30.6,17.2,29.80,WNW,291,16.0,16.0,57,0.00,,,0.00,Wunderground v.1.15,2013-04-03 12:45:00,
2013-04-03 08:50:00,30.8,17.7,29.80,West,273,16.0,16.0,58,0.00,,,0.00,Wunderground v.1.15,2013-04-03 12:50:00,
2013-04-03 08:55:00,31.0,17.1,29.80,NW,314,17.0,24.0,56,0.00,,,0.00,Wunderground v.1.15,2013-04-03 12:55:00,
2013-04-03 09:00:00,31.2,18.1,29.80,WNW,285,18.0,18.0,58,0.00,,,0.00,Wunderground v.1.15,2013-04-03 13:00:00,
2013-04-03 09:05:00,31.1,17.2,29.79,WNW,302,17.0,18.0,56,0.00,,,0.00,Wunderground v.1.15,2013-04-03 13:05:00,
2013-04-03 09:10:00,31.2,16.0,29.80,West,277,17.0,17.0,53,0.00,,,0.00,Wunderground v.1.15,2013-04-03 13:10:00,
2013-04-03 09:15:00,31.4,18.3,29.80,NW,305,17.0,17.0,58,0.00,,,0.00,Wunderground v.1.15,2013-04-03 13:15:00,
2013-04-03 09:25:00,31.8,17.5,29.79,NW,315,20.0,22.0,55,0.00,,,0.00,Wunderground v.1.15,2013-04-03 13:25:00,
2013-04-03 09:30:00,32.0,17.6,29.80,NW,305,22.0,22.0,55,0.00,,,0.00,Wunderground v.1.15,2013-04-03 13:30:00,
2013-04-03 09:35:00,32.0,17.6,29.80,NW,308,22.0,22.0,55,0.00,,,0.00,Wunderground v.1.15,2013-04-03 13:35:00,
2013-04-03 09:40:00,31.9,14.4,29.80,NW,317,23.0,23.0,48,0.00,,,0.00,Wunderground v.1.15,2013-04-03 13:40:00,
2013-04-03 09:50:00,32.4,17.2,29.79,WNW,287,22.0,22.0,53,0.00,,,0.00,Wunderground v.1.15,2013-04-03 13:50:00,
2013-04-03 09:55:00,32.4,18.4,29.80,NW,306,21.0,22.0,56,0.00,,,0.00,Wunderground v.1.15,2013-04-03 13:55:00,
2013-04-03 10:00:00,32.3,17.9,29.80,WNW,283,20.0,23.0,55,0.00,,,0.00,Wunderground v.1.15,2013-04-03 14:00:00,
2013-04-03 10:05:00,32.2,16.5,29.80,WNW,292,21.0,23.0,52,0.00,,,0.00,Wunderground v.1.15,2013-04-03 14:05:00,
2013-04-03 10:10:00,32.5,16.8,29.80,NW,320,20.0,29.0,52,0.00,,,0.00,Wunderground v.1.15,2013-04-03 14:10:00,
2013-04-03 10:15:00,32.6,16.0,29.80,WNW,291,21.0,29.0,50,0.00,,,0.00,Wunderground v.1.15,2013-04-03 14:15:00,
2013-04-03 10:20:00,32.9,17.2,29.80,NW,317,22.0,22.0,52,0.00,,,0.00,Wunderground v.1.15,2013-04-03 14:20:00,
2013-04-03 10:30:00,32.9,17.6,29.80,NW,308,20.0,21.0,53,0.00,,,0.00,Wunderground v.1.15,2013-04-03 14:30:00,
2013-04-03 10:40:00,33.0,16.8,29.80,WNW,298,22.0,22.0,51,0.00,,,0.00,Wunderground v.1.15,2013-04-03 14:40:00,
2013-04-03 10:45:00,33.2,16.5,29.80,WNW,300,21.0,22.0,50,0.00,,,0.00,Wunderground v.1.15,2013-04-03 14:45:00,
2013-04-03 10:55:00,33.5,16.8,29.80,NW,317,22.0,25.0,50,0.00,,,0.00,Wunderground v.1.15,2013-04-03 14:55:00,
2013-04-03 11:00:00,33.7,17.5,29.80,NW,315,22.0,22.0,51,0.00,,,0.00,Wunderground v.1.15,2013-04-03 15:00:00,
2013-04-03 11:05:00,33.9,16.7,29.80,NW,312,21.0,22.0,49,0.00,,,0.00,Wunderground v.1.15,2013-04-03 15:05:00,
2013-04-03 11:15:00,34.3,16.6,29.79,NW,306,20.0,21.0,48,0.00,,,0.00,Wunderground v.1.15,2013-04-03 15:15:00,
2013-04-03 11:25:00,35.2,17.0,29.79,NW,315,20.0,22.0,47,0.00,,,0.00,Wunderground v.1.15,2013-04-03 15:25:00,
2013-04-03 11:35:00,35.5,16.2,29.79,NNW,329,23.0,23.0,45,0.00,,,0.00,Wunderground v.1.15,2013-04-03 15:35:00,
2013-04-03 11:40:00,35.9,18.6,29.79,NW,310,24.0,24.0,49,0.00,,,0.00,Wunderground v.1.15,2013-04-03 15:40:00,
2013-04-03 11:45:00,35.9,15.0,29.78,NW,318,24.0,24.0,42,0.00,,,0.00,Wunderground v.1.15,2013-04-03 15:45:00,
2013-04-03 11:55:00,36.1,15.2,29.78,NW,319,25.0,26.0,42,0.00,,,0.00,Wunderground v.1.15,2013-04-03 15:55:00,
2013-04-03 12:00:00,36.4,16.5,29.78,NW,322,26.0,26.0,44,0.00,,,0.00,Wunderground v.1.15,2013-04-03 16:00:00,
2013-04-03 12:05:00,36.7,15.2,29.78,NW,325,26.0,32.0,41,0.00,,,0.00,Wunderground v.1.15,2013-04-03 16:05:00,
2013-04-03 12:10:00,36.6,16.7,29.78,NW,313,27.0,27.0,44,0.00,,,0.00,Wunderground v.1.15,2013-04-03 16:10:00,
2013-04-03 12:15:00,36.8,14.7,29.78,NW,318,27.0,29.0,40,0.00,,,0.00,Wunderground v.1.15,2013-04-03 16:15:00,
2013-04-03 12:20:00,36.8,16.4,29.78,NW,320,28.0,32.0,43,0.00,,,0.00,Wunderground v.1.15,2013-04-03 16:20:00,
2013-04-03 12:30:00,37.2,13.9,29.79,NNW,331,27.0,28.0,38,0.00,,,0.00,Wunderground v.1.15,2013-04-03 16:30:00,
2013-04-03 12:35:00,37.3,16.8,29.78,NW,313,27.0,30.0,43,0.00,,,0.00,Wunderground v.1.15,2013-04-03 16:35:00,
2013-04-03 12:40:00,37.6,17.6,29.78,NNW,327,26.0,26.0,44,0.00,,,0.00,Wunderground v.1.15,2013-04-03 16:40:00,
2013-04-03 12:45:00,37.6,17.1,29.78,NW,322,24.0,28.0,43,0.00,,,0.00,Wunderground v.1.15,2013-04-03 16:45:00,
2013-04-03 12:50:00,37.7,15.5,29.78,NW,308,24.0,24.0,40,0.00,,,0.00,Wunderground v.1.15,2013-04-03 16:50:00,
2013-04-03 12:55:00,38.0,17.5,29.78,NW,318,24.0,24.0,43,0.00,,,0.00,Wunderground v.1.15,2013-04-03 16:55:00,
2013-04-03 13:00:00,38.1,14.1,29.78,WNW,302,23.0,23.0,37,0.00,,,0.00,Wunderground v.1.15,2013-04-03 17:00:00,
2013-04-03 13:05:00,38.2,16.0,29.78,NW,312,22.0,31.0,40,0.00,,,0.00,Wunderground v.1.15,2013-04-03 17:05:00,
2013-04-03 13:15:00,38.2,14.8,29.78,NW,316,28.0,29.0,38,0.00,,,0.00,Wunderground v.1.15,2013-04-03 17:15:00,
2013-04-03 13:20:00,38.4,16.1,29.78,NW,317,28.0,31.0,40,0.00,,,0.00,Wunderground v.1.15,2013-04-03 17:20:00,
2013-04-03 13:30:00,38.6,16.3,29.78,NNW,334,30.0,32.0,40,0.00,,,0.00,Wunderground v.1.15,2013-04-03 17:30:00,
2013-04-03 13:35:00,38.7,18.1,29.78,NNW,331,28.0,32.0,43,0.00,,,0.00,Wunderground v.1.15,2013-04-03 17:35:00,
2013-04-03 13:40:00,38.6,15.1,29.78,NNW,327,29.0,29.0,38,0.00,,,0.00,Wunderground v.1.15,2013-04-03 17:40:00,
2013-04-03 13:45:00,38.6,16.9,29.78,NW,310,30.0,31.0,41,0.00,,,0.00,Wunderground v.1.15,2013-04-03 17:45:00,
2013-04-03 13:50:00,38.9,16.0,29.78,NNW,329,29.0,29.0,39,0.00,,,0.00,Wunderground v.1.15,2013-04-03 17:50:00,
2013-04-03 13:55:00,39.1,18.5,29.78,NW,317,29.0,30.0,43,0.00,,,0.00,Wunderground v.1.15,2013-04-03 17:55:00,
2013-04-03 14:00:00,39.1,15.6,29.78,NW,310,28.0,28.0,38,0.00,,,0.00,Wunderground v.1.15,2013-04-03 18:00:00,
2013-04-03 14:05:00,39.1,16.2,29.78,NW,311,26.0,28.0,39,0.00,,,0.00,Wunderground v.1.15,2013-04-03 18:05:00,
2013-04-03 14:10:00,39.1,13.7,29.78,NW,304,25.0,25.0,35,0.00,,,0.00,Wunderground v.1.15,2013-04-03 18:10:00,
2013-04-03 14:15:00,39.1,16.2,29.78,NW,307,24.0,25.0,39,0.00,,,0.00,Wunderground v.1.15,2013-04-03 18:15:00,
2013-04-03 14:20:00,39.4,15.3,29.79,NNW,333,24.0,31.0,37,0.00,,,0.00,Wunderground v.1.15,2013-04-03 18:20:00,
2013-04-03 14:25:00,39.7,15.5,29.79,NNW,333,26.0,33.0,37,0.00,,,0.00,Wunderground v.1.15,2013-04-03 18:25:00,
2013-04-03 14:30:00,39.8,18.0,29.78,NW,318,30.0,30.0,41,0.00,,,0.00,Wunderground v.1.15,2013-04-03 18:30:00,
2013-04-03 14:35:00,39.8,14.3,29.78,NNW,328,30.0,30.0,35,0.00,,,0.00,Wunderground v.1.15,2013-04-03 18:35:00,
2013-04-03 14:40:00,40.0,15.2,29.78,NNW,327,29.0,29.0,36,0.00,,,0.00,Wunderground v.1.15,2013-04-03 18:40:00,
2013-04-03 14:45:00,40.1,16.5,29.78,NW,316,27.0,32.0,38,0.00,,,0.00,Wunderground v.1.15,2013-04-03 18:45:00,
2013-04-03 14:50:00,40.1,17.1,29.78,WNW,302,26.0,26.0,39,0.00,,,0.00,Wunderground v.1.15,2013-04-03 18:50:00,
2013-04-03 14:55:00,40.1,17.7,29.78,NW,311,23.0,26.0,40,0.00,,,0.00,Wunderground v.1.15,2013-04-03 18:55:00,
2013-04-03 15:00:00,40.2,16.6,29.78,NW,310,21.0,22.0,38,0.00,,,0.00,Wunderground v.1.15,2013-04-03 19:00:00,
2013-04-03 15:06:00,40.5,19.2,29.78,NW,323,22.0,22.0,42,0.00,,,0.00,Wunderground v.1.15,2013-04-03 19:06:00,
2013-04-03 15:10:00,40.5,20.3,29.79,NW,308,23.0,29.0,44,0.00,,,0.00,Wunderground v.1.15,2013-04-03 19:10:00,
2013-04-03 15:15:00,40.4,18.0,29.79,NW,323,24.0,29.0,40,0.00,,,0.00,Wunderground v.1.15,2013-04-03 19:15:00,
2013-04-03 15:20:00,40.3,18.4,29.78,NW,316,26.0,26.0,41,0.00,,,0.00,Wunderground v.1.15,2013-04-03 19:20:00,
2013-04-03 15:25:00,40.4,15.5,29.78,NW,314,26.0,26.0,36,0.00,,,0.00,Wunderground v.1.15,2013-04-03 19:25:00,
2013-04-03 15:30:00,40.5,18.6,29.78,NW,316,25.0,29.0,41,0.00,,,0.00,Wunderground v.1.15,2013-04-03 19:30:00,
2013-04-03 15:35:00,40.5,19.2,29.78,NW,312,26.0,29.0,42,0.00,,,0.00,Wunderground v.1.15,2013-04-03 19:35:00,
2013-04-03 15:40:00,40.7,17.0,29.78,WNW,289,26.0,26.0,38,0.00,,,0.00,Wunderground v.1.15,2013-04-03 19:40:00,
2013-04-03 15:45:00,40.7,17.6,29.79,NW,317,25.0,26.0,39,0.00,,,0.00,Wunderground v.1.15,2013-04-03 19:45:00,
2013-04-03 15:50:00,40.8,16.5,29.79,NW,314,25.0,25.0,37,0.00,,,0.00,Wunderground v.1.15,2013-04-03 19:50:00,
2013-04-03 15:55:00,40.9,17.8,29.79,NW,317,23.0,25.0,39,0.00,,,0.00,Wunderground v.1.15,2013-04-03 19:55:00,
2013-04-03 16:00:00,41.0,16.7,29.79,NW,318,24.0,24.0,37,0.00,,,0.00,Wunderground v.1.15,2013-04-03 20:00:00,
2013-04-03 16:05:00,41.1,17.4,29.79,NW,309,23.0,24.0,38,0.00,,,0.00,Wunderground v.1.15,2013-04-03 20:05:00,
2013-04-03 16:10:00,41.0,21.8,29.79,NW,316,22.0,22.0,46,0.00,,,0.00,Wunderground v.1.15,2013-04-03 20:10:00,
2013-04-03 16:15:00,41.2,16.2,29.79,NW,319,21.0,22.0,36,0.00,,,0.00,Wunderground v.1.15,2013-04-03 20:15:00,
2013-04-03 16:20:00,41.2,18.7,29.79,NW,310,20.0,23.0,40,0.00,,,0.00,Wunderground v.1.15,2013-04-03 20:20:00,
2013-04-03 16:25:00,41.1,22.9,29.80,NW,318,21.0,24.0,48,0.00,,,0.00,Wunderground v.1.15,2013-04-03 20:25:00,
2013-04-03 16:30:00,41.1,20.3,29.80,NNW,332,21.0,26.0,43,0.00,,,0.00,Wunderground v.1.15,2013-04-03 20:30:00,
2013-04-03 16:40:00,41.3,15.0,29.79,NNW,337,21.0,21.0,34,0.00,,,0.00,Wunderground v.1.15,2013-04-03 20:40:00,
2013-04-03 16:45:00,41.3,14.3,29.79,NNW,341,21.0,21.0,33,0.00,,,0.00,Wunderground v.1.15,2013-04-03 20:45:00,
2013-04-03 16:51:00,41.4,20.0,29.79,NNW,333,20.0,20.0,42,0.00,,,0.00,Wunderground v.1.15,2013-04-03 20:51:00,
2013-04-03 17:00:00,41.7,17.3,29.79,NNW,335,17.0,17.0,37,0.00,,,0.00,Wunderground v.1.15,2013-04-03 21:00:00,
2013-04-03 17:05:00,41.8,15.4,29.79,NNW,336,17.0,21.0,34,0.00,,,0.00,Wunderground v.1.15,2013-04-03 21:05:00,
2013-04-03 17:15:00,41.7,17.3,29.79,NNW,339,16.0,20.0,37,0.00,,,0.00,Wunderground v.1.15,2013-04-03 21:15:00,
2013-04-03 17:20:00,41.8,18.0,29.80,NNW,341,18.0,23.0,38,0.00,,,0.00,Wunderground v.1.15,2013-04-03 21:20:00,
2013-04-03 17:30:00,41.8,17.4,29.80,NNW,333,21.0,21.0,37,0.00,,,0.00,Wunderground v.1.15,2013-04-03 21:30:00,
2013-04-03 17:35:00,41.8,18.0,29.81,NNW,331,22.0,25.0,38,0.00,,,0.00,Wunderground v.1.15,2013-04-03 21:35:00,
2013-04-03 17:40:00,41.7,17.9,29.81,NNW,330,23.0,23.0,38,0.00,,,0.00,Wunderground v.1.15,2013-04-03 21:40:00,
2013-04-03 17:45:00,41.6,19.6,29.81,NNW,336,22.0,23.0,41,0.00,,,0.00,Wunderground v.1.15,2013-04-03 21:45:00,
2013-04-03 17:50:00,41.5,18.4,29.81,NNW,336,20.0,21.0,39,0.00,,,0.00,Wunderground v.1.15,2013-04-03 21:50:00,
2013-04-03 17:55:00,41.6,15.3,29.81,NNW,334,20.0,21.0,34,0.00,,,0.00,Wunderground v.1.15,2013-04-03 21:55:00,
2013-04-03 18:01:00,41.8,17.4,29.81,NNW,333,22.0,22.0,37,0.00,,,0.00,Wunderground v.1.15,2013-04-03 22:01:00,
2013-04-03 18:10:00,41.9,18.1,29.82,NNW,334,25.0,32.0,38,0.00,,,0.00,Wunderground v.1.15,2013-04-03 22:10:00,
2013-04-03 18:20:00,41.8,19.2,29.82,NNW,336,24.0,24.0,40,0.00,,,0.00,Wunderground v.1.15,2013-04-03 22:20:00,
2013-04-03 18:25:00,41.6,17.8,29.82,NNW,333,22.0,24.0,38,0.00,,,0.00,Wunderground v.1.15,2013-04-03 22:25:00,
2013-04-03 18:30:00,41.5,16.5,29.83,NNW,334,22.0,24.0,36,0.00,,,0.00,Wunderground v.1.15,2013-04-03 22:30:00,
2013-04-03 18:35:00,41.4,20.0,29.83,NW,326,22.0,24.0,42,0.00,,,0.00,Wunderground v.1.15,2013-04-03 22:35:00,
2013-04-03 18:45:00,41.3,19.3,29.84,NNW,341,22.0,22.0,41,0.00,,,0.00,Wunderground v.1.15,2013-04-03 22:45:00,
2013-04-03 18:50:00,41.2,19.8,29.84,NNW,336,22.0,22.0,42,0.00,,,0.00,Wunderground v.1.15,2013-04-03 22:50:00,
2013-04-03 18:55:00,41.1,20.8,29.85,NNW,339,21.0,22.0,44,0.00,,,0.00,Wunderground v.1.15,2013-04-03 22:55:00,
2013-04-03 19:00:00,40.6,19.8,29.85,NNW,334,18.0,19.0,43,0.00,,,0.00,Wunderground v.1.15,2013-04-03 23:00:00,
2013-04-03 19:05:00,40.3,19.0,29.85,NNW,334,15.0,19.0,42,0.00,,,0.00,Wunderground v.1.15,2013-04-03 23:05:00,
2013-04-03 19:10:00,40.1,19.9,29.85,NNW,341,16.0,16.0,44,0.00,,,0.00,Wunderground v.1.15,2013-04-03 23:10:00,
2013-04-03 19:15:00,40.1,20.4,29.86,NNW,335,16.0,22.0,45,0.00,,,0.00,Wunderground v.1.15,2013-04-03 23:15:00,
2013-04-03 19:20:00,40.1,18.3,29.86,NNW,337,17.0,17.0,41,0.00,,,0.00,Wunderground v.1.15,2013-04-03 23:20:00,
2013-04-03 19:25:00,40.0,18.2,29.87,NNW,337,17.0,20.0,41,0.00,,,0.00,Wunderground v.1.15,2013-04-03 23:25:00,
2013-04-03 19:35:00,39.8,19.1,29.88,NNW,335,18.0,26.0,43,0.00,,,0.00,Wunderground v.1.15,2013-04-03 23:35:00,
2013-04-03 19:40:00,39.7,20.6,29.89,NNW,339,20.0,26.0,46,0.00,,,0.00,Wunderground v.1.15,2013-04-03 23:40:00,
2013-04-03 19:45:00,39.6,18.9,29.89,NNW,332,22.0,26.0,43,0.00,,,0.00,Wunderground v.1.15,2013-04-03 23:45:00,
2013-04-03 19:50:00,39.4,17.0,29.90,North,351,23.0,25.0,40,0.00,,,0.00,Wunderground v.1.15,2013-04-03 23:50:00,
2013-04-03 19:55:00,39.2,19.6,29.91,NNW,336,23.0,25.0,45,0.00,,,0.00,Wunderground v.1.15,2013-04-03 23:55:00,
2013-04-03 20:00:00,39.1,18.5,29.91,NNW,339,21.0,21.0,43,0.00,,,0.00,Wunderground v.1.15,2013-04-04 00:00:00,
2013-04-03 20:05:00,38.9,19.3,29.91,NNW,337,20.0,21.0,45,0.00,,,0.00,Wunderground v.1.15,2013-04-04 00:05:00,
2013-04-03 20:11:00,38.8,20.3,29.91,NNW,337,19.0,22.0,47,0.00,,,0.00,Wunderground v.1.15,2013-04-04 00:11:00,
2013-04-03 20:15:00,38.7,19.7,29.91,NNW,346,20.0,22.0,46,0.00,,,0.00,Wunderground v.1.15,2013-04-04 00:15:00,
2013-04-03 20:20:00,38.5,18.4,29.91,NNW,331,21.0,21.0,44,0.00,,,0.00,Wunderground v.1.15,2013-04-04 00:20:00,
2013-04-03 20:25:00,38.4,20.9,29.91,NNW,341,20.0,21.0,49,0.00,,,0.00,Wunderground v.1.15,2013-04-04 00:25:00,
2013-04-03 20:30:00,38.3,18.8,29.92,NNW,337,20.0,20.0,45,0.00,,,0.00,Wunderground v.1.15,2013-04-04 00:30:00,
2013-04-03 20:35:00,38.2,19.2,29.92,NNW,335,19.0,20.0,46,0.00,,,0.00,Wunderground v.1.15,2013-04-04 00:35:00,
2013-04-03 20:40:00,38.1,20.6,29.92,NNW,335,18.0,20.0,49,0.00,,,0.00,Wunderground v.1.15,2013-04-04 00:40:00,
2013-04-03 20:45:00,38.0,20.5,29.93,NNW,337,18.0,20.0,49,0.00,,,0.00,Wunderground v.1.15,2013-04-04 00:45:00,
2013-04-03 20:51:00,37.9,19.4,29.93,NNW,330,19.0,22.0,47,0.00,,,0.00,Wunderground v.1.15,2013-04-04 00:51:00,
2013-04-03 20:55:00,37.9,19.4,29.93,NNW,343,20.0,22.0,47,0.00,,,0.00,Wunderground v.1.15,2013-04-04 00:55:00,
2013-04-03 21:01:00,37.7,20.7,29.93,North,356,19.0,19.0,50,0.00,,,0.00,Wunderground v.1.15,2013-04-04 01:01:00,
2013-04-03 21:05:00,37.6,19.2,29.94,NNW,335,17.0,19.0,47,0.00,,,0.00,Wunderground v.1.15,2013-04-04 01:05:00,
2013-04-03 21:10:00,37.6,19.7,29.94,NNW,334,17.0,17.0,48,0.00,,,0.00,Wunderground v.1.15,2013-04-04 01:10:00,
2013-04-03 21:15:00,37.4,18.5,29.95,NNW,335,16.0,17.0,46,0.00,,,0.00,Wunderground v.1.15,2013-04-04 01:15:00,
2013-04-03 21:20:00,37.3,19.9,29.95,NNW,342,14.0,14.0,49,0.00,,,0.00,Wunderground v.1.15,2013-04-04 01:20:00,
2013-04-03 21:25:00,37.1,19.2,29.95,NNW,339,12.0,14.0,48,0.00,,,0.00,Wunderground v.1.15,2013-04-04 01:25:00,
2013-04-03 21:30:00,37.0,18.6,29.95,NNW,338,12.0,14.0,47,0.00,,,0.00,Wunderground v.1.15,2013-04-04 01:30:00,
2013-04-03 21:35:00,36.9,19.0,29.95,NNW,330,12.0,14.0,48,0.00,,,0.00,Wunderground v.1.15,2013-04-04 01:35:00,
2013-04-03 21:40:00,36.8,20.3,29.96,NNW,334,13.0,13.0,51,0.00,,,0.00,Wunderground v.1.15,2013-04-04 01:40:00,
2013-04-03 21:45:00,36.7,19.3,29.95,NNW,332,13.0,13.0,49,0.00,,,0.00,Wunderground v.1.15,2013-04-04 01:45:00,
2013-04-03 21:55:00,36.7,20.7,29.96,NNW,332,17.0,20.0,52,0.00,,,0.00,Wunderground v.1.15,2013-04-04 01:55:00,
2013-04-03 22:00:00,36.5,19.6,29.96,NNW,337,18.0,18.0,50,0.00,,,0.00,Wunderground v.1.15,2013-04-04 02:00:00,
2013-04-03 22:06:00,36.3,20.8,29.96,NNW,344,18.0,18.0,53,0.00,,,0.00,Wunderground v.1.15,2013-04-04 02:06:00,
2013-04-03 22:10:00,36.1,20.6,29.96,North,352,17.0,17.0,53,0.00,,,0.00,Wunderground v.1.15,2013-04-04 02:10:00,
2013-04-03 22:15:00,36.0,20.5,29.96,NNW,333,16.0,18.0,53,0.00,,,0.00,Wunderground v.1.15,2013-04-04 02:15:00,
2013-04-03 22:20:00,36.0,20.5,29.96,NNW,336,17.0,21.0,53,0.00,,,0.00,Wunderground v.1.15,2013-04-04 02:20:00,
2013-04-03 22:25:00,35.8,20.8,29.96,NW,325,18.0,21.0,54,0.00,,,0.00,Wunderground v.1.15,2013-04-04 02:25:00,
2013-04-03 22:30:00,35.7,20.7,29.96,NNW,335,17.0,18.0,54,0.00,,,0.00,Wunderground v.1.15,2013-04-04 02:30:00,
2013-04-03 22:35:00,35.6,20.6,29.97,NNW,332,16.0,18.0,54,0.00,,,0.00,Wunderground v.1.15,2013-04-04 02:35:00,
2013-04-03 22:40:00,35.5,20.5,29.97,NNW,328,15.0,15.0,54,0.00,,,0.00,Wunderground v.1.15,2013-04-04 02:40:00,
2013-04-03 22:45:00,35.4,20.8,29.97,NNW,327,14.0,15.0,55,0.00,,,0.00,Wunderground v.1.15,2013-04-04 02:45:00,
2013-04-03 22:50:00,35.3,21.2,29.98,NNW,337,15.0,15.0,56,0.00,,,0.00,Wunderground v.1.15,2013-04-04 02:50:00,
2013-04-03 22:55:00,35.2,21.5,29.97,NNW,329,16.0,18.0,57,0.00,,,0.00,Wunderground v.1.15,2013-04-04 02:55:00,
2013-04-03 23:01:00,35.2,21.9,29.97,NW,323,18.0,20.0,58,0.00,,,0.00,Wunderground v.1.15,2013-04-04 03:01:00,
2013-04-03 23:05:00,35.2,21.9,29.97,NNW,335,19.0,20.0,58,0.00,,,0.00,Wunderground v.1.15,2013-04-04 03:05:00,
2013-04-03 23:10:00,35.1,21.4,29.98,NNW,332,19.0,22.0,57,0.00,,,0.00,Wunderground v.1.15,2013-04-04 03:10:00,
2013-04-03 23:20:00,35.1,22.2,29.98,NNW,330,21.0,22.0,59,0.00,,,0.00,Wunderground v.1.15,2013-04-04 03:20:00,
2013-04-03 23:25:00,35.0,22.1,29.98,NNW,329,22.0,22.0,59,0.00,,,0.00,Wunderground v.1.15,2013-04-04 03:25:00,
2013-04-03 23:35:00,34.9,21.2,29.98,NNW,335,24.0,24.0,57,0.00,,,0.00,Wunderground v.1.15,2013-04-04 03:35:00,
2013-04-03 23:41:00,34.9,23.2,29.99,NNW,327,24.0,26.0,62,0.00,,,0.00,Wunderground v.1.15,2013-04-04 03:41:00,
2013-04-03 23:46:00,34.8,22.3,30.00,NNW,339,23.0,26.0,60,0.00,,,0.00,Wunderground v.1.15,2013-04-04 03:46:00,
2013-04-03 23:55:00,34.6,21.7,30.00,NNW,339,20.0,21.0,59,0.00,,,0.00,Wunderground v.1.15,2013-04-04 03:55:00,